• In Belarus
  • List of Countries
  • For 7 days
  • Water Temperature
  • Satellite Maps
  • Weather Map
  • Weather Widgets
  • user-avatar
    Login

    Hourly Weather Zadovo

    Today, 21 October, Sunday

    Time Temperature Precipitation Wind Pressure Humidity
    00:00 +5°C° 0 mm 1 mps 756 mmHg 89%
    01:00 +5°C° 0 mm 1 mps 756 mmHg 89%
    02:00 +5°C° 0 mm 1 mps 756 mmHg 90%
    03:00 +4°C° 0 mm 1 mps 756 mmHg 91%
    04:00 +3°C° 0 mm 0 mps 756 mmHg 91%
    05:00 +3°C° 0 mm 0 mps 756 mmHg 91%
    06:00 +3°C° 0 mm 0 mps 756 mmHg 92%
    07:00 +4°C° 0 mm 0 mps 757 mmHg 89%
    08:00 +4°C° 0 mm 0 mps 757 mmHg 87%
    09:00 +5°C° 0 mm 0 mps 758 mmHg 81%
    10:00 +6°C° 0 mm 0 mps 758 mmHg 76%
    11:00 +7°C° 0 mm 0 mps 758 mmHg 72%
    12:00 +7°C° 0 mm 0 mps 758 mmHg 67%
    13:00 +8°C° 0 mm 0 mps 758 mmHg 65%
    14:00 +9°C° 0 mm 1 mps 758 mmHg 64%
    15:00 +9°C° 0 mm 1 mps 758 mmHg 62%
    16:00 +8°C° 0 mm 1 mps 758 mmHg 66%
    17:00 +7°C° 0 mm 1 mps 758 mmHg 70%
    18:00 +6°C° 0 mm 1 mps 758 mmHg 74%
    19:00 +6°C° 0 mm 1 mps 758 mmHg 76%
    20:00 +6°C° 0 mm 1 mps 758 mmHg 77%
    21:00 +5°C° 0 mm 1 mps 758 mmHg 79%
    22:00 +4°C° 0 mm 2 mps 758 mmHg 79%
    23:00 +4°C° 0 mm 2 mps 758 mmHg 80%

    Tomorrow, 22 October, Monday

    Time Temperature Precipitation Wind Pressure Humidity
    00:00 +4°C° 0 mm 2 mps 758 mmHg 80%
    01:00 +4°C° 0 mm 2 mps 757 mmHg 82%
    02:00 +3°C° 0 mm 2 mps 757 mmHg 83%
    03:00 +3°C° 0 mm 2 mps 757 mmHg 85%
    04:00 +2°C° 0 mm 3 mps 757 mmHg 85%
    05:00 +2°C° 0 mm 3 mps 756 mmHg 85%
    06:00 +2°C° 0 mm 3 mps 756 mmHg 86%
    07:00 +1°C° 0 mm 4 mps 755 mmHg 84%
    08:00 +1°C° 0 mm 4 mps 755 mmHg 83%
    09:00 +2°C° 0 mm 5 mps 754 mmHg 81%
    10:00 +3°C° 0 mm 5 mps 754 mmHg 76%
    11:00 +5°C° 0 mm 5 mps 753 mmHg 71%
    12:00 +5°C° 0 mm 6 mps 753 mmHg 65%
    13:00 +7°C° 0 mm 6 mps 752 mmHg 64%
    14:00 +7°C° 0 mm 6 mps 751 mmHg 62%
    15:00 +8°C° 0 mm 6 mps 751 mmHg 60%
    16:00 +7°C° 0 mm 6 mps 750 mmHg 63%
    17:00 +5°C° 0 mm 6 mps 750 mmHg 66%
    18:00 +5°C° 0 mm 5 mps 749 mmHg 69%
    19:00 +5°C° 0 mm 5 mps 749 mmHg 70%
    20:00 +5°C° 0 mm 5 mps 748 mmHg 72%
    21:00 +5°C° 0 mm 5 mps 748 mmHg 73%
    22:00 +5°C° 0.2 mm 5 mps 747 mmHg 75%
    23:00 +5°C° 0.2 mm 5 mps 747 mmHg 78%

    Day after tomorrow, 23 October, Tuesday

    Time Temperature Precipitation Wind Pressure Humidity
    00:00 +5°C° 0.2 mm 5 mps 746 mmHg 80%
    01:00 +3°C° 0.4 mm 5 mps 746 mmHg 82%
    02:00 +3°C° 0.4 mm 5 mps 745 mmHg 84%
    03:00 +4°C° 0.4 mm 4 mps 745 mmHg 86%
    04:00 +4°C° 0.5 mm 4 mps 744 mmHg 87%
    05:00 +5°C° 0.5 mm 4 mps 744 mmHg 89%
    06:00 +5°C° 0.5 mm 4 mps 744 mmHg 90%
    07:00 +5°C° 0.4 mm 3 mps 744 mmHg 90%
    08:00 +5°C° 0.4 mm 3 mps 744 mmHg 90%
    09:00 +5°C° 0.4 mm 3 mps 743 mmHg 90%
    10:00 +5°C° 0.1 mm 3 mps 743 mmHg 84%
    11:00 +7°C° 0.1 mm 3 mps 743 mmHg 79%
    12:00 +7°C° 0.1 mm 3 mps 743 mmHg 74%
    13:00 +7°C° 0 mm 3 mps 742 mmHg 71%
    14:00 +7°C° 0 mm 2 mps 742 mmHg 69%
    15:00 +7°C° 0 mm 2 mps 742 mmHg 67%
    16:00 +6°C° 0 mm 2 mps 741 mmHg 72%
    17:00 +5°C° 0 mm 2 mps 741 mmHg 77%
    18:00 +5°C° 0 mm 1 mps 741 mmHg 82%
    19:00 +5°C° 0 mm 1 mps 740 mmHg 83%
    20:00 +4°C° 0 mm 1 mps 740 mmHg 84%
    21:00 +4°C° 0 mm 1 mps 739 mmHg 85%
    22:00 +4°C° 0 mm 1 mps 739 mmHg 85%
    23:00 +4°C° 0 mm 1 mps 738 mmHg 86%

    24 October, Wednesday

    Time Temperature Precipitation Wind Pressure Humidity
    00:00 +3°C° 0 mm 1 mps 738 mmHg 87%
    01:00 +3°C° 0 mm 1 mps 737 mmHg 88%
    02:00 +3°C° 0 mm 1 mps 736 mmHg 88%
    03:00 +2°C° 0 mm 2 mps 736 mmHg 89%
    04:00 +2°C° 0 mm 2 mps 735 mmHg 90%
    05:00 +1°C° 0 mm 2 mps 735 mmHg 92%
    06:00 +1°C° 0 mm 2 mps 734 mmHg 93%
    07:00 +1°C° 0 mm 2 mps 734 mmHg 92%
    08:00 +2°C° 0 mm 2 mps 734 mmHg 91%
    09:00 +2°C° 0 mm 2 mps 734 mmHg 89%
    10:00 +3°C° 0 mm 2 mps 734 mmHg 84%
    11:00 +4°C° 0 mm 2 mps 734 mmHg 79%
    12:00 +5°C° 0 mm 3 mps 734 mmHg 74%
    13:00 +5°C° 0 mm 3 mps 734 mmHg 72%
    14:00 +5°C° 0 mm 3 mps 734 mmHg 69%
    15:00 +5°C° 0 mm 3 mps 734 mmHg 67%
    16:00 +4°C° 0 mm 3 mps 734 mmHg 72%
    17:00 +3°C° 0 mm 3 mps 734 mmHg 76%
    18:00 +3°C° 0 mm 3 mps 734 mmHg 81%
    19:00 +3°C° 0 mm 3 mps 734 mmHg 82%
    20:00 +3°C° 0 mm 3 mps 734 mmHg 82%
    21:00 +3°C° 0 mm 3 mps 734 mmHg 83%
    22:00 +3°C° 0.2 mm 3 mps 734 mmHg 84%
    23:00 +3°C° 0.2 mm 4 mps 733 mmHg 85%

    25 October, Thursday

    Time Temperature Precipitation Wind Pressure Humidity
    00:00 +3°C° 0.2 mm 4 mps 733 mmHg 85%
    01:00 +3°C° 0.2 mm 4 mps 733 mmHg 87%
    02:00 +3°C° 0.2 mm 4 mps 732 mmHg 88%
    03:00 +3°C° 0.2 mm 4 mps 732 mmHg 90%
    04:00 +3°C° 0.1 mm 4 mps 732 mmHg 90%
    05:00 +3°C° 0.1 mm 4 mps 731 mmHg 91%
    06:00 +3°C° 0.1 mm 4 mps 731 mmHg 92%
    07:00 +3°C° 0.5 mm 4 mps 730 mmHg 92%
    08:00 +3°C° 0.5 mm 4 mps 730 mmHg 92%
    09:00 +4°C° 0.5 mm 4 mps 730 mmHg 92%
    10:00 +4°C° 0.3 mm 3 mps 729 mmHg 91%
    11:00 +4°C° 0.3 mm 3 mps 729 mmHg 90%
    12:00 +5°C° 0.3 mm 3 mps 729 mmHg 89%
    13:00 +5°C° 0.1 mm 3 mps 729 mmHg 88%
    14:00 +6°C° 0.1 mm 2 mps 728 mmHg 87%
    15:00 +7°C° 0.1 mm 2 mps 728 mmHg 86%
    16:00 +6°C° 0.2 mm 2 mps 728 mmHg 89%
    17:00 +6°C° 0.2 mm 2 mps 727 mmHg 91%
    18:00 +6°C° 0.2 mm 1 mps 727 mmHg 94%
    19:00 +6°C° 0.4 mm 1 mps 726 mmHg 94%
    20:00 +6°C° 0.4 mm 1 mps 726 mmHg 95%
    21:00 +6°C° 0.4 mm 1 mps 725 mmHg 95%
    22:00 +5°C° 0.6 mm 2 mps 725 mmHg 95%
    23:00 +5°C° 0.6 mm 2 mps 724 mmHg 95%

    26 October, Friday

    Time Temperature Precipitation Wind Pressure Humidity
    00:00 +3°C° 0.6 mm 3 mps 724 mmHg 94%
    01:00 +3°C° 0.9 mm 3 mps 724 mmHg 94%
    02:00 +3°C° 0.9 mm 4 mps 724 mmHg 93%
    03:00 +3°C° 0.9 mm 4 mps 724 mmHg 92%
    04:00 +3°C° 0.4 mm 4 mps 724 mmHg 90%
    05:00 +3°C° 0.4 mm 4 mps 725 mmHg 88%
    06:00 +2°C° 0.4 mm 5 mps 725 mmHg 87%
    07:00 +2°C° 0.2 mm 5 mps 726 mmHg 85%
    08:00 +1°C° 0.2 mm 5 mps 727 mmHg 83%
    09:00 +1°C° 0.2 mm 5 mps 727 mmHg 81%
    10:00 +1°C° 0.2 mm 6 mps 728 mmHg 80%
    11:00 +2°C° 0.2 mm 6 mps 729 mmHg 78%
    12:00 +2°C° 0.2 mm 6 mps 730 mmHg 77%
    13:00 +2°C° 0.1 mm 6 mps 731 mmHg 74%
    14:00 +2°C° 0.1 mm 6 mps 732 mmHg 72%
    15:00 +2°C° 0.1 mm 6 mps 733 mmHg 70%
    16:00 +2°C° 0 mm 6 mps 734 mmHg 72%
    17:00 +2°C° 0 mm 5 mps 735 mmHg 75%
    18:00 +1°C° 0 mm 5 mps 735 mmHg 77%
    19:00 +1°C° 0 mm 5 mps 736 mmHg 78%
    20:00 +1°C° 0 mm 5 mps 737 mmHg 79%
    21:00 0°C° 0 mm 4 mps 737 mmHg 80%
    22:00 0°C° 0 mm 4 mps 738 mmHg 83%
    23:00 0°C° 0 mm 4 mps 738 mmHg 85%
    Show more